Vertical_Velocity
-1 -2 -1 -1 -1 -2 -1 -1 -0 0 -0 -0 1 0 1 0 1 1 1 -1 -0 -1 -1 -2 0 -1 1 -1 -2 -1 -2 -2 -1 1 2 -3 -8 -3 -2 -8 -3 -1 -3 -9 -0
-1 0 0 -0 -1 -0 -0 -1 -1 0 0 -0 -1 0 -0 -0 -2 -0 -2 -3 -3 -2 1 4 4 -1 -6 -6 -4 -1 -5 -5 -3 -5 -9 -2 -3 -2 -3 -3 -3 -2 6 -0 -11
-2 -3 -1 -1 0 -0 -1 -1 -0 -0 -0 -1 -1 -1 1 -2 -2 -1 -2 -3 -2 -1 -0 1 -1 -1 -2 -3 -3 -1 -2 1 -3 -2 -2 1 -0 -2 -2 -1 -4 -13 -11 3 -3
-1 -2 -1 -1 -2 -2 -1 -2 -0 -2 -2 -2 -2 -1 -1 -2 -2 -1 -1 -2 -1 -2 -2 1 -1 -4 -3 -2 -2 -5 -2 -3 1 0 0 1 -2 -0 -3 -4 -5 -1 -7 -13 -5
-1 -1 -1 -0 -1 -1 -2 -2 -3 -2 -1 -1 -1 -3 -1 -2 -1 1 -2 -2 -4 -0 1 -1 -1 -4 -3 -1 -0 -5 -2 3 3 -2 1 -1 -2 -4 -2 4 4 -2 -2 1 -8
-2 -2 -2 -2 -2 -0 -1 -1 -2 -2 -2 -2 -2 -0 -1 -2 0 -1 -1 -1 -2 1 0 -2 -4 -1 -4 -1 -1 -4 -5 0 -2 4 3 4 2 4 2 -4 -6 -2 10 -5 -8
-1 -0 -1 -2 -2 -1 -1 -2 -2 -1 -2 -1 -1 2 0 1 2 -2 -2 -3 1 1 0 -1 -1 -2 2 -2 0 -1 -4 1 -1 -1 -2 -5 -4 -11 -7 -1 6 1 -9 2 5
-0 -2 -1 -0 -1 -1 -1 -1 -2 -1 0 -1 -1 -0 1 -0 -2 -0 -2 -1 -1 2 -1 -0 -2 3 -3 1 1 0 -7 0 0 3 -2 -2 2 -0 1 -6 -10 -6 6 -4 3
-1 -1 -2 -1 -1 -2 -2 -3 -4 -2 -2 -1 -1 -2 -1 0 -3 -5 -3 -5 -3 -1 -1 1 1 -2 2 1 -7 -1 -3 -0 0 -1 1 0 -2 -1 4 -3 -6 -3 -4 2 -1
-1 -1 -1 -1 -1 -1 -0 0 5 0 -2 -1 -1 -2 -1 -5 -3 -2 -2 1 1 2 1 -0 -2 0 -2 -3 -5 -4 -3 2 -2 -4 -1 -2 -1 1 0 2 -2 0 -1 -1 -2
-2 -3 -2 1 -2 1 3 -0 3 -2 0 -2 -1 -3 -2 -3 -3 -1 -0 1 -0 -1 -2 -3 -1 -5 0 -2 -2 -1 -3 -3 2 -1 3 -2 0 -2 1 8 -12 -8 -2 -0 -2
-2 -1 -2 -2 -0 -2 -3 -1 -3 -1 -2 -1 -1 -0 2 1 1 1 -2 -1 -1 2 -1 -1 2 -0 -1 -2 3 2 -0 -2 -2 3 3 -1 1 -1 -1 -6 -6 4 -0 -4 -2
-1 -1 -2 -2 -2 2 -3 -2 -0 -2 -3 -2 -2 1 -1 -0 1 -0 1 -1 -0 0 1 0 -1 0 2 1 1 2 1 1 -2 3 -3 4 -0 -1 -2 2 3 -3 -7 1 7
-1 -2 -0 -1 -0 -3 -3 -1 0 1 0 -1 -3 -2 -1 -1 -2 -2 -2 -2 -1 -0 0 -1 0 2 1 -1 -3 -2 -0 2 3 -1 -1 -0 -4 -1 -5 -2 -1 -3 -4 -14 -4
-2 -1 -3 -4 0 -1 -3 -3 0 -2 -6 2 -0 0 -1 1 2 -1 -4 -2 -1 -3 -1 1 0 -1 2 -1 -2 -1 -2 -3 3 2 1 3 4 -3 -4 2 -1 -2 -3 1 -8
-2 -3 -1 -2 -2 -2 -2 -2 -2 -2 -5 -3 1 -3 -0 -0 -0 1 0 -0 1 1 2 1 2 1 3 3 0 -1 4 2 1 3 -0 -1 2 -2 -2 -2 -3 0 -2 -4 3
-2 -3 -3 -3 -3 -3 -2 -1 -2 -6 1 0 -5 -3 -1 -2 -1 -1 -0 -2 -1 -5 -2 -1 -1 0 0 -3 3 0 1 -1 -2 -1 -5 2 0 -3 -1 -3 -3 1 1 2 -3
-1 -3 -4 -1 -2 -4 -3 -3 -3 -1 -3 -2 -4 1 -3 -3 -1 -1 -1 1 -3 0 -1 -3 -6 1 -1 -0 -1 2 0 -2 -1 -1 -2 -1 -1 -4 2 -1 0 -0 1 0 4
2 0 -1 -2 -2 -2 -4 -5 -1 -0 1 -1 2 -2 -3 -0 -1 -4 1 1 1 3 -2 -1 -4 3 -0 3 3 1 0 2 1 0 0 0 -3 -3 -4 -0 -1 -1 1 2 2
-2 1 1 -0 -1 -2 -2 -3 -0 -1 -2 -1 -1 -2 -4 -3 -2 0 -2 -1 -1 -1 -0 1 -9 -1 -1 -2 -1 3 -0 -1 0 0 -0 -1 -3 -4 -1 -1 -1 1 -1 -3 -0
-2 -5 -2 -0 -1 -2 -2 -3 -3 -1 -3 -4 -3 -0 2 -4 -2 -4 -1 1 2 1 -1 -1 2 -1 2 0 3 3 3 2 -1 1 -0 -0 -4 -3 -2 -0 -1 -1 1 1 -3
-0 -2 -5 -2 -2 -2 -1 -0 -4 -0 -0 -1 -1 -2 -2 -1 -6 -0 -1 -1 -1 -0 -2 -0 -1 -6 -4 2 1 2 1 4 1 -1 1 2 -10 -1 -4 -3 0 -0 0 1 1
-3 -2 -1 -1 -0 -3 -2 3 0 -3 2 1 5 2 2 3 -4 -1 -2 -1 2 0 -1 -2 7 -5 -11 1 1 -4 2 1 1 3 -6 2 -8 1 0 -3 -3 -0 2 2 2
-3 -2 -3 -1 0 2 -1 0 -0 -3 -5 -2 -2 1 -2 2 8 -4 1 2 2 3 4 3 -2 -1 -6 -2 8 -4 3 -1 10 6 -3 -14 -5 -3 1 2 -2 -2 -1 -1 -0
0 -3 -1 -3 -3 -2 -2 3 -2 -4 -1 2 -3 2 -1 -2 -7 -2 -1 0 1 -1 -2 6 -5 4 -2 -1 3 0 -2 3 -4 -8 11 -13 -4 0 -1 0 2 -0 -0 -1 -1
1 0 -4 2 2 0 -1 1 2 1 -1 -2 -2 -5 2 -1 4 -9 3 9 -3 -4 2 -1 -7 2 -11 1 1 -9 -2 4 3 1 -1 3 -7 -2 2 -1 -1 2 2 0 0
0 -0 2 -2 -2 1 0 0 -4 1 -1 1 -1 -3 2 5 3 2 1 -1 5 0 4 4 3 2 -9 1 1 -15 -2 1 2 4 2 -3 5 -3 2 0 0 1 1 1 3
Height
3187 3185 3183 3181 3178 3176 3174 3172 3170 3168 3167 3165 3164 3162 3160 3159 3157 3155 3153 3151 3148 3146 3143 3140 3139 3137 3135 3131 3130 3129 3130 3131 3132 3131 3131 3129 3129 3127 3126 3123 3123 3123 3121 3121 3120
3188 3186 3183 3181 3178 3175 3173 3171 3169 3167 3165 3164 3163 3161 3159 3158 3156 3155 3153 3150 3148 3146 3144 3142 3140 3136 3133 3131 3129 3129 3130 3131 3131 3131 3130 3128 3124 3123 3122 3120 3120 3120 3118 3117 3117
3189 3186 3184 3181 3177 3174 3172 3169 3167 3166 3164 3163 3162 3160 3159 3158 3157 3155 3152 3150 3148 3146 3144 3142 3139 3136 3132 3130 3130 3129 3130 3130 3131 3130 3128 3126 3122 3120 3118 3118 3115 3113 3112 3111 3109
3189 3187 3184 3181 3177 3173 3170 3168 3166 3164 3162 3161 3160 3159 3158 3157 3158 3154 3152 3150 3148 3146 3143 3142 3139 3136 3133 3132 3131 3131 3130 3131 3130 3128 3126 3123 3120 3119 3116 3115 3112 3109 3106 3102 3101
3190 3187 3185 3181 3177 3173 3169 3166 3164 3163 3161 3160 3158 3157 3156 3156 3155 3153 3151 3149 3147 3145 3144 3141 3139 3136 3134 3133 3132 3132 3131 3130 3129 3125 3123 3121 3120 3119 3117 3116 3112 3107 3101 3094 3090
3190 3188 3185 3182 3178 3173 3169 3165 3163 3161 3159 3158 3157 3156 3155 3155 3153 3152 3150 3149 3147 3145 3142 3140 3138 3136 3134 3133 3132 3131 3130 3129 3127 3125 3122 3122 3120 3118 3117 3112 3105 3095 3084 3075 3077
3191 3188 3185 3181 3177 3173 3169 3165 3162 3160 3158 3157 3155 3154 3154 3155 3153 3152 3150 3148 3146 3144 3142 3140 3138 3136 3133 3132 3131 3130 3130 3129 3128 3126 3124 3122 3121 3118 3111 3102 3092 3078 3068 3064 3065
3191 3188 3184 3180 3177 3173 3169 3165 3161 3159 3157 3156 3154 3153 3153 3153 3152 3151 3150 3148 3145 3143 3141 3140 3138 3136 3133 3131 3131 3130 3129 3128 3127 3126 3125 3123 3120 3115 3110 3099 3084 3076 3069 3064 3063
3190 3188 3184 3180 3177 3173 3169 3164 3161 3157 3155 3154 3153 3153 3154 3153 3152 3151 3149 3147 3144 3142 3140 3140 3138 3137 3135 3132 3131 3129 3127 3127 3127 3125 3125 3123 3119 3116 3108 3096 3085 3080 3074 3067 3065
3190 3186 3183 3179 3176 3173 3169 3164 3161 3157 3153 3152 3152 3156 3154 3153 3151 3150 3148 3145 3143 3142 3141 3140 3138 3137 3134 3133 3132 3130 3128 3126 3125 3125 3122 3120 3117 3115 3108 3099 3089 3083 3078 3074 3072
3189 3185 3182 3178 3174 3172 3169 3165 3164 3158 3154 3153 3153 3152 3153 3153 3151 3149 3148 3145 3143 3140 3138 3136 3136 3134 3133 3131 3129 3127 3126 3125 3124 3122 3121 3118 3115 3114 3109 3103 3094 3085 3079 3076 3074
3188 3185 3181 3178 3174 3170 3167 3163 3158 3157 3154 3154 3154 3154 3153 3152 3151 3149 3147 3145 3142 3139 3137 3136 3134 3134 3131 3130 3128 3126 3124 3123 3123 3121 3121 3118 3115 3113 3109 3102 3095 3090 3083 3077 3074
3187 3184 3180 3177 3174 3171 3166 3162 3158 3156 3156 3156 3155 3154 3153 3152 3149 3148 3145 3143 3140 3137 3135 3135 3135 3131 3130 3129 3128 3126 3125 3123 3122 3121 3119 3117 3115 3113 3110 3105 3099 3094 3088 3082 3074
3186 3183 3180 3177 3175 3168 3165 3161 3158 3156 3156 3158 3156 3155 3153 3149 3148 3146 3144 3143 3139 3138 3136 3135 3132 3131 3128 3126 3124 3125 3124 3123 3121 3120 3118 3117 3116 3112 3110 3106 3102 3096 3091 3086 3080
3185 3182 3179 3175 3172 3168 3165 3161 3158 3157 3158 3159 3155 3153 3150 3149 3147 3145 3143 3139 3137 3136 3136 3134 3130 3128 3127 3125 3123 3123 3119 3120 3119 3118 3117 3114 3115 3110 3110 3107 3104 3099 3094 3090 3085
3184 3182 3179 3177 3173 3169 3165 3161 3159 3160 3159 3159 3157 3153 3150 3147 3146 3143 3141 3138 3136 3134 3133 3132 3130 3128 3127 3125 3123 3121 3118 3116 3116 3116 3115 3111 3112 3109 3108 3107 3104 3101 3098 3094 3091
3183 3181 3178 3176 3173 3168 3164 3162 3161 3159 3162 3160 3155 3152 3149 3147 3145 3143 3140 3138 3136 3134 3132 3129 3128 3127 3126 3125 3123 3120 3118 3116 3118 3117 3113 3109 3110 3105 3105 3104 3104 3102 3100 3097 3094
3181 3179 3177 3174 3171 3168 3165 3163 3160 3161 3159 3158 3155 3152 3151 3148 3145 3143 3140 3137 3136 3134 3131 3129 3127 3126 3125 3123 3123 3120 3119 3117 3116 3115 3112 3111 3106 3104 3104 3103 3103 3103 3101 3098 3097
3180 3177 3174 3172 3169 3166 3164 3162 3162 3161 3159 3157 3154 3151 3151 3150 3148 3144 3140 3137 3136 3135 3135 3131 3127 3126 3124 3123 3121 3119 3120 3119 3116 3113 3113 3108 3105 3102 3101 3102 3102 3102 3101 3099 3097
3178 3175 3172 3169 3166 3163 3162 3160 3160 3159 3158 3157 3155 3153 3151 3149 3147 3144 3140 3138 3136 3136 3134 3132 3126 3123 3122 3121 3121 3119 3119 3118 3116 3113 3109 3105 3104 3100 3099 3100 3101 3100 3100 3099 3097
3175 3172 3169 3165 3163 3161 3159 3158 3157 3157 3156 3156 3154 3153 3151 3148 3146 3143 3141 3139 3135 3134 3132 3131 3129 3125 3121 3120 3118 3118 3117 3117 3117 3114 3110 3107 3100 3099 3100 3100 3099 3099 3099 3097 3095
3170 3168 3165 3162 3161 3157 3156 3156 3155 3154 3153 3152 3150 3149 3147 3145 3143 3140 3139 3138 3135 3133 3130 3127 3124 3122 3121 3117 3115 3115 3115 3115 3115 3114 3112 3108 3099 3095 3097 3097 3097 3096 3095 3095 3094
3165 3164 3162 3159 3156 3155 3155 3153 3152 3151 3151 3149 3148 3147 3145 3143 3142 3138 3136 3135 3133 3131 3130 3128 3122 3118 3116 3116 3112 3112 3113 3112 3112 3109 3106 3108 3097 3093 3092 3092 3093 3093 3091 3089 3088
3161 3159 3158 3155 3154 3153 3151 3150 3149 3148 3146 3146 3145 3144 3142 3141 3139 3136 3134 3132 3130 3127 3126 3122 3120 3119 3116 3112 3110 3106 3104 3104 3104 3101 3097 3094 3092 3090 3089 3088 3088 3088 3087 3086 3084
3156 3156 3156 3154 3151 3149 3148 3147 3145 3144 3143 3142 3140 3140 3138 3136 3134 3132 3130 3127 3125 3123 3121 3120 3113 3112 3108 3106 3104 3098 3093 3093 3090 3087 3087 3082 3085 3085 3084 3083 3082 3082 3082 3081 3079
3152 3151 3152 3150 3148 3146 3144 3144 3142 3140 3139 3138 3137 3137 3135 3132 3130 3126 3125 3121 3119 3116 3115 3113 3107 3103 3098 3099 3097 3089 3085 3081 3080 3078 3075 3076 3074 3075 3077 3077 3076 3076 3075 3074 3073
3149 3147 3145 3147 3144 3143 3141 3140 3139 3137 3136 3133 3133 3131 3130 3128 3125 3122 3118 3115 3113 3110 3109 3108 3105 3103 3092 3092 3089 3081 3075 3073 3072 3072 3071 3068 3069 3068 3069 3069 3070 3070 3070 3070 3069